When you browse on this site, cookies collect data to enhance your experience and personalize the content and advertising you see.
Visit our Privacy Policy to learn more. By continuing to use the site, you agree to this use of cookies and data.
  • en Suisse
  • Liste des pays
  • À 7 jours
  • Température de l'eau
  • Carte météo
  • Widgets météo
  • user-avatar
    Se connecter

    Météo par heure à Dangriga

    Ce jour, 24 Septembre, Mardi

    Heure Température Précipitation Vent Pression Humidité
    00:00 +26°C° 0 mm 3 m/s 757 mmHg 97%
    01:00 +26°C° 0 mm 3 m/s 757 mmHg 97%
    02:00 +26°C° 0 mm 3 m/s 757 mmHg 97%
    03:00 +26°C° 0 mm 3 m/s 757 mmHg 97%
    04:00 +26°C° 0 mm 2 m/s 757 mmHg 96%
    05:00 +26°C° 0 mm 2 m/s 757 mmHg 96%
    06:00 +26°C° 0 mm 1 m/s 757 mmHg 96%
    07:00 +29°C° 0 mm 1 m/s 757 mmHg 84%
    08:00 +31°C° 0 mm 1 m/s 758 mmHg 72%
    09:00 +34°C° 0 mm 1 m/s 758 mmHg 60%
    10:00 +36°C° 0 mm 2 m/s 758 mmHg 58%
    11:00 +36°C° 0 mm 2 m/s 757 mmHg 56%
    12:00 +37°C° 0 mm 3 m/s 757 mmHg 54%
    13:00 +36°C° 0 mm 3 m/s 756 mmHg 56%
    14:00 +36°C° 0 mm 3 m/s 755 mmHg 58%
    15:00 +36°C° 0 mm 3 m/s 755 mmHg 60%
    16:00 +34°C° 0.1 mm 2 m/s 755 mmHg 71%
    17:00 +31°C° 0.1 mm 2 m/s 755 mmHg 82%
    18:00 +28°C° 0.1 mm 2 m/s 755 mmHg 93%
    19:00 +28°C° 0.2 mm 2 m/s 756 mmHg 95%
    20:00 +27°C° 0.2 mm 2 m/s 757 mmHg 96%
    21:00 +27°C° 0.2 mm 2 m/s 757 mmHg 98%
    22:00 +27°C° 0.1 mm 2 m/s 757 mmHg 97%
    23:00 +27°C° 0.1 mm 2 m/s 757 mmHg 97%

    Demain, 25 Septembre, Mercredi

    Heure Température Précipitation Vent Pression Humidité
    00:00 +27°C° 0.1 mm 2 m/s 757 mmHg 96%
    01:00 +26°C° 0.1 mm 2 m/s 757 mmHg 96%
    02:00 +26°C° 0.1 mm 2 m/s 756 mmHg 96%
    03:00 +26°C° 0.1 mm 2 m/s 756 mmHg 96%
    04:00 +26°C° 0.2 mm 2 m/s 756 mmHg 96%
    05:00 +26°C° 0.2 mm 2 m/s 757 mmHg 97%
    06:00 +26°C° 0.2 mm 1 m/s 757 mmHg 97%
    07:00 +28°C° 0.1 mm 1 m/s 757 mmHg 87%
    08:00 +31°C° 0.1 mm 1 m/s 758 mmHg 76%
    09:00 +34°C° 0.1 mm 1 m/s 758 mmHg 65%
    10:00 +35°C° 0 mm 1 m/s 757 mmHg 62%
    11:00 +37°C° 0 mm 2 m/s 757 mmHg 59%
    12:00 +38°C° 0 mm 2 m/s 756 mmHg 55%
    13:00 +37°C° 0.4 mm 2 m/s 756 mmHg 64%
    14:00 +35°C° 0.4 mm 2 m/s 755 mmHg 74%
    15:00 +34°C° 0.4 mm 3 m/s 755 mmHg 83%
    16:00 +31°C° 0.8 mm 3 m/s 755 mmHg 88%
    17:00 +30°C° 0.8 mm 3 m/s 755 mmHg 92%
    18:00 +28°C° 0.8 mm 3 m/s 755 mmHg 97%
    19:00 +28°C° 0.3 mm 3 m/s 756 mmHg 97%
    20:00 +27°C° 0.3 mm 3 m/s 756 mmHg 97%
    21:00 +27°C° 0.3 mm 3 m/s 757 mmHg 97%
    22:00 +27°C° 0 mm 3 m/s 757 mmHg 97%
    23:00 +27°C° 0 mm 3 m/s 756 mmHg 97%

    Après-demain, 26 Septembre, Jeudi

    Heure Température Précipitation Vent Pression Humidité
    00:00 +27°C° 0 mm 3 m/s 756 mmHg 97%
    01:00 +26°C° 0 mm 2 m/s 756 mmHg 97%
    02:00 +26°C° 0 mm 2 m/s 756 mmHg 98%
    03:00 +26°C° 0 mm 1 m/s 756 mmHg 98%
    04:00 +26°C° 0.1 mm 1 m/s 756 mmHg 98%
    05:00 +26°C° 0.1 mm 1 m/s 756 mmHg 97%
    06:00 +26°C° 0.1 mm 1 m/s 756 mmHg 97%
    07:00 +28°C° 0 mm 1 m/s 757 mmHg 89%
    08:00 +30°C° 0 mm 1 m/s 757 mmHg 80%
    09:00 +31°C° 0 mm 0 m/s 757 mmHg 72%
    10:00 +34°C° 0 mm 1 m/s 757 mmHg 63%
    11:00 +36°C° 0 mm 1 m/s 756 mmHg 55%
    12:00 +38°C° 0 mm 2 m/s 756 mmHg 47%
    13:00 +37°C° 0 mm 2 m/s 755 mmHg 53%
    14:00 +36°C° 0 mm 3 m/s 755 mmHg 60%
    15:00 +35°C° 0 mm 3 m/s 754 mmHg 66%
    16:00 +33°C° 0 mm 3 m/s 754 mmHg 74%
    17:00 +30°C° 0 mm 3 m/s 754 mmHg 81%
    18:00 +28°C° 0 mm 3 m/s 754 mmHg 89%
    19:00 +28°C° 0.5 mm 2 m/s 755 mmHg 89%
    20:00 +27°C° 0.5 mm 2 m/s 756 mmHg 90%
    21:00 +27°C° 0.5 mm 2 m/s 756 mmHg 91%
    22:00 +27°C° 1.5 mm 2 m/s 756 mmHg 92%
    23:00 +27°C° 1.5 mm 3 m/s 756 mmHg 93%

    27 Septembre, Vendredi

    Heure Température Précipitation Vent Pression Humidité
    00:00 +27°C° 1.5 mm 3 m/s 756 mmHg 95%
    01:00 +27°C° 0.5 mm 3 m/s 756 mmHg 95%
    02:00 +27°C° 0.5 mm 3 m/s 755 mmHg 95%
    03:00 +27°C° 0.5 mm 2 m/s 755 mmHg 96%
    04:00 +27°C° 0.1 mm 2 m/s 755 mmHg 97%
    05:00 +27°C° 0.1 mm 2 m/s 755 mmHg 97%
    06:00 +27°C° 0.1 mm 2 m/s 755 mmHg 98%
    07:00 +28°C° 0.4 mm 2 m/s 756 mmHg 95%
    08:00 +29°C° 0.4 mm 3 m/s 756 mmHg 92%
    09:00 +31°C° 0.4 mm 3 m/s 756 mmHg 90%
    10:00 +33°C° 0.4 mm 3 m/s 756 mmHg 80%
    11:00 +34°C° 0.4 mm 3 m/s 756 mmHg 71%
    12:00 +35°C° 0.4 mm 3 m/s 755 mmHg 62%
    13:00 +35°C° 0 mm 3 m/s 755 mmHg 62%
    14:00 +35°C° 0 mm 4 m/s 754 mmHg 62%
    15:00 +35°C° 0 mm 4 m/s 754 mmHg 62%
    16:00 +33°C° 0 mm 4 m/s 754 mmHg 72%
    17:00 +30°C° 0 mm 4 m/s 754 mmHg 82%
    18:00 +29°C° 0 mm 4 m/s 754 mmHg 92%
    19:00 +28°C° 0.1 mm 4 m/s 755 mmHg 94%
    20:00 +28°C° 0.1 mm 4 m/s 755 mmHg 96%
    21:00 +28°C° 0.1 mm 4 m/s 756 mmHg 98%
    22:00 +28°C° 0.7 mm 3 m/s 756 mmHg 98%
    23:00 +28°C° 0.7 mm 3 m/s 755 mmHg 98%

    28 Septembre, Samedi

    Heure Température Précipitation Vent Pression Humidité
    00:00 +28°C° 0.7 mm 2 m/s 755 mmHg 99%
    01:00 +27°C° 0.6 mm 2 m/s 755 mmHg 98%
    02:00 +27°C° 0.6 mm 2 m/s 755 mmHg 98%
    03:00 +27°C° 0.6 mm 2 m/s 754 mmHg 98%
    04:00 +27°C° 0.1 mm 2 m/s 755 mmHg 97%
    05:00 +27°C° 0.1 mm 2 m/s 755 mmHg 97%
    06:00 +27°C° 0.1 mm 2 m/s 756 mmHg 96%
    07:00 +29°C° 0 mm 2 m/s 756 mmHg 87%
    08:00 +31°C° 0 mm 2 m/s 756 mmHg 77%
    09:00 +34°C° 0 mm 2 m/s 757 mmHg 67%
    10:00 +35°C° 0 mm 2 m/s 757 mmHg 61%
    11:00 +36°C° 0 mm 2 m/s 756 mmHg 55%
    12:00 +37°C° 0 mm 2 m/s 756 mmHg 50%
    13:00 +37°C° 0 mm 2 m/s 755 mmHg 50%
    14:00 +37°C° 0 mm 3 m/s 755 mmHg 51%
    15:00 +36°C° 0 mm 3 m/s 754 mmHg 52%
    16:00 +34°C° 0.2 mm 3 m/s 755 mmHg 64%
    17:00 +31°C° 0.2 mm 3 m/s 755 mmHg 77%
    18:00 +29°C° 0.2 mm 4 m/s 755 mmHg 90%
    19:00 +28°C° 1.4 mm 4 m/s 756 mmHg 92%
    20:00 +28°C° 1.4 mm 4 m/s 756 mmHg 95%
    21:00 +27°C° 1.4 mm 4 m/s 757 mmHg 97%
    22:00 +27°C° 0.1 mm 3 m/s 757 mmHg 97%
    23:00 +27°C° 0.1 mm 3 m/s 757 mmHg 97%

    29 Septembre, Dimanche

    Heure Température Précipitation Vent Pression Humidité
    00:00 +27°C° 0.1 mm 2 m/s 757 mmHg 97%
    01:00 +27°C° 0.3 mm 2 m/s 757 mmHg 96%
    02:00 +27°C° 0.3 mm 2 m/s 757 mmHg 95%
    03:00 +27°C° 0.3 mm 2 m/s 756 mmHg 95%
    04:00 +27°C° 0.3 mm 2 m/s 757 mmHg 94%
    05:00 +27°C° 0.3 mm 2 m/s 757 mmHg 94%
    06:00 +27°C° 0.3 mm 2 m/s 757 mmHg 93%
    07:00 +30°C° 0.2 mm 2 m/s 757 mmHg 82%
    08:00 +32°C° 0.2 mm 2 m/s 758 mmHg 71%
    09:00 +35°C° 0.2 mm 1 m/s 758 mmHg 60%
    10:00 +37°C° 0.1 mm 2 m/s 758 mmHg 56%
    11:00 +38°C° 0.1 mm 2 m/s 758 mmHg 51%
    12:00 +39°C° 0.1 mm 2 m/s 757 mmHg 46%
    13:00 +37°C° 0.2 mm 3 m/s 757 mmHg 56%
    14:00 +36°C° 0.2 mm 3 m/s 756 mmHg 65%
    15:00 +34°C° 0.2 mm 4 m/s 755 mmHg 74%
    16:00 +33°C° 0 mm 4 m/s 756 mmHg 80%
    17:00 +32°C° 0 mm 4 m/s 756 mmHg 86%
    18:00 +29°C° 0 mm 4 m/s 756 mmHg 91%
    19:00 +29°C° 0 mm 4 m/s 757 mmHg 93%
    20:00 +29°C° 0 mm 4 m/s 757 mmHg 95%
    21:00 +28°C° 0 mm 4 m/s 758 mmHg 97%
    22:00 +28°C° 0.1 mm 4 m/s 758 mmHg 98%
    23:00 +28°C° 0.1 mm 4 m/s 758 mmHg 98%
    Voir plus